Terminal Aerodrome Forecast
Issued by NWS

Home | Current Version | Previous Version | Graphics & Text | Print | Product List | Glossary On
Versions: 1 2 3 4 5 6 7 8 9 10 11 12 13 14 15 16 17 18 19 20 21 22 23 24 25 26 27 28 29 30 31 32 33 34 35 36 37 38 39 40 41 42 43 44 45 46 47 48 49 50
000
FTUS43 KLOT 310300 AAA
TAFGYY
TAF AMD
KGYY 310312Z 3103/3124 VRB03KT P6SM SCT050 OVC300
     FM310700 00000KT 4SM BCFG BR OVC300
     FM311000 00000KT 2SM BCFG BR SCT003 SCT300
     FM311400 22006KT P6SM SCT300=

USA.gov is the U.S. government's official web portal to all federal, state and local government web resources and services.